| time (UTC) | temp F | wind direction | speed knots | gust knots | rain 1hr in | rain 24hr in | rain mn in | humidity % | barometer mb |
| 20260508044505 | 76 | 298 | 4.3 | 13.9 | 0.00 | 0.00 | 0.00 | 24 | 996.8 |
| 20260508043505 | 76 | 298 | 4.3 | 15.6 | 0.00 | 0.00 | 0.00 | 24 | 996.7 |
| 20260508043005 | 76 | 296 | 3.5 | 13.0 | 0.00 | 0.00 | 0.00 | 24 | 996.8 |
| 20260508042004 | 76 | 296 | 5.2 | 17.4 | 0.00 | 0.00 | 0.00 | 23 | 996.7 |
| 20260508041505 | 76 | 299 | 7.8 | 17.4 | 0.00 | 0.00 | 0.00 | 23 | 996.6 |
| 20260508041005 | 76 | 304 | 7.8 | 17.4 | 0.00 | 0.00 | 0.00 | 23 | 996.6 |
| 20260508040505 | 76 | 310 | 7.0 | 18.2 | 0.00 | 0.00 | 0.00 | 26 | 996.6 |
| 20260508040005 | 76 | 304 | 6.1 | 18.2 | 0.00 | 0.00 | 0.00 | 23 | 996.5 |
| 20260508035505 | 76 | 306 | 6.1 | 18.2 | 0.00 | 0.00 | 0.00 | 23 | 996.4 |
| 20260508035005 | 76 | 309 | 6.1 | 18.2 | 0.00 | 0.00 | 0.00 | 23 | 996.4 |
| 20260508034505 | 77 | 302 | 6.1 | 19.1 | 0.00 | 0.00 | 0.00 | 23 | 996.3 |
| 20260508033505 | 77 | 305 | 4.3 | 16.5 | 0.00 | 0.00 | 0.00 | 22 | 996.2 |
| 20260508033005 | 77 | 301 | 4.3 | 16.5 | 0.00 | 0.00 | 0.00 | 22 | 996.1 |
| 20260508032505 | 77 | 300 | 3.5 | 14.8 | 0.00 | 0.00 | 0.00 | 22 | 996.1 |
| 20260508032004 | 77 | 312 | 3.5 | 17.4 | 0.00 | 0.00 | 0.00 | 22 | 996.1 |
| 20260508031504 | 78 | 308 | 5.2 | 19.1 | 0.00 | 0.00 | 0.00 | 22 | 996.1 |
| 20260508031005 | 78 | 297 | 5.2 | 19.1 | 0.00 | 0.00 | 0.00 | 22 | 996.1 |
| 20260508030505 | 78 | 299 | 3.5 | 14.8 | 0.00 | 0.00 | 0.00 | 22 | 996.1 |
| 20260508030005 | 78 | 304 | 3.5 | 14.8 | 0.00 | 0.00 | 0.00 | 22 | 995.9 |
| 20260508025004 | 78 | 296 | 2.6 | 19.1 | 0.00 | 0.00 | 0.00 | 22 | 995.6 |
| 20260508024504 | 79 | 291 | 2.6 | 14.8 | 0.00 | 0.00 | 0.00 | 22 | 995.6 |
| 20260508024004 | 79 | 298 | 2.6 | 13.9 | 0.00 | 0.00 | 0.00 | 22 | 995.6 |
| 20260508023504 | 79 | 298 | 1.7 | 11.3 | 0.00 | 0.00 | 0.00 | 21 | 995.6 |
| 20260508022505 | 80 | 284 | 2.6 | 10.4 | 0.00 | 0.00 | 0.00 | 21 | 995.5 |
| 20260508022006 | 80 | 295 | 2.6 | 13.9 | 0.00 | 0.00 | 0.00 | 21 | 995.5 |
| 20260508021505 | 80 | 282 | 2.6 | 13.9 | 0.00 | 0.00 | 0.00 | 20 | 995.4 |
| 20260508021005 | 81 | 285 | 1.7 | 9.6 | 0.00 | 0.00 | 0.00 | 20 | 995.3 |
| 20260508020504 | 81 | 297 | 2.6 | 13.9 | 0.00 | 0.00 | 0.00 | 20 | 995.2 |
| 20260508020004 | 82 | 292 | 3.5 | 13.9 | 0.00 | 0.00 | 0.00 | 19 | 995.1 |
| 20260508015505 | 82 | 299 | 3.5 | 13.0 | 0.00 | 0.00 | 0.00 | 18 | 995.1 |
| 20260508015004 | 83 | 304 | 3.5 | 13.0 | 0.00 | 0.00 | 0.00 | 17 | 995.1 |
| 20260508014505 | 84 | 292 | 1.7 | 10.4 | 0.00 | 0.00 | 0.00 | 12 | 995.1 |
| 20260508014005 | 84 | 289 | 1.7 | 5.2 | 0.00 | 0.00 | 0.00 | 12 | 995.0 |
| 20260508013505 | 85 | 295 | 0.9 | 5.2 | 0.00 | 0.00 | 0.00 | 11 | 995.0 |
| 20260508013005 | 85 | 293 | 0.9 | 4.3 | 0.00 | 0.00 | 0.00 | 11 | 994.9 |
| 20260508012505 | 85 | 298 | 1.7 | 10.4 | 0.00 | 0.00 | 0.00 | 11 | 994.9 |
| 20260508012005 | 85 | 298 | 1.7 | 10.4 | 0.00 | 0.00 | 0.00 | 11 | 994.8 |
| 20260508011505 | 85 | 300 | 1.7 | 7.8 | 0.00 | 0.00 | 0.00 | 11 | 994.8 |
| 20260508011005 | 85 | 300 | 1.7 | 7.8 | 0.00 | 0.00 | 0.00 | 11 | 994.7 |
| 20260508010505 | 85 | 296 | 2.6 | 9.6 | 0.00 | 0.00 | 0.00 | 10 | 994.7 |
| 20260508010004 | 86 | 296 | 1.7 | 9.6 | 0.00 | 0.00 | 0.00 | 11 | 994.7 |
| 20260508004505 | 86 | 306 | 3.5 | 10.4 | 0.00 | 0.00 | 0.00 | 11 | 994.6 |
| 20260508004005 | 86 | 315 | 2.6 | 10.4 | 0.00 | 0.00 | 0.00 | 10 | 994.6 |
| 20260508003504 | 87 | 329 | 0.9 | 10.4 | 0.00 | 0.00 | 0.00 | 10 | 994.6 |
| 20260508003005 | 87 | 280 | 0.9 | 5.2 | 0.00 | 0.00 | 0.00 | 10 | 994.6 |
| 20260508002504 | 87 | 289 | 0.9 | 5.2 | 0.00 | 0.00 | 0.00 | 10 | 994.6 |
| 20260508002004 | 87 | 283 | 0.9 | 7.8 | 0.00 | 0.00 | 0.00 | 10 | 994.6 |
| 20260508001506 | 87 | 282 | 0.9 | 7.8 | 0.00 | 0.00 | 0.00 | 10 | 994.6 |
| 20260508001005 | 87 | 295 | 1.7 | 7.0 | 0.00 | 0.00 | 0.00 | 10 | 994.6 |
| 20260508000505 | 87 | 300 | 1.7 | 10.4 | 0.00 | 0.00 | 0.00 | 10 | 994.6 |
| 20260508000005 | 87 | 289 | 0.9 | 10.4 | 0.00 | 0.00 | 0.00 | 10 | 994.6 |
| 20260507235505 | 87 | 233 | 1.7 | 9.6 | 0.00 | 0.00 | 0.00 | 10 | 994.7 |
| 20260507234504 | 87 | 282 | 0.9 | 12.2 | 0.00 | 0.00 | 0.00 | 10 | 994.8 |
| 20260507234004 | 87 | 301 | 0.9 | 12.2 | 0.00 | 0.00 | 0.00 | 10 | 994.8 |
| 20260507233005 | 87 | 290 | 0.9 | 10.4 | 0.00 | 0.00 | 0.00 | 10 | 994.9 |
| 20260507232505 | 87 | 302 | 2.6 | 13.0 | 0.00 | 0.00 | 0.00 | 10 | 995.0 |
| 20260507231505 | 86 | 305 | 2.6 | 12.2 | 0.00 | 0.00 | 0.00 | 11 | 995.0 |
| 20260507231005 | 86 | 320 | 2.6 | 11.3 | 0.00 | 0.00 | 0.00 | 11 | 995.0 |
| 20260507230505 | 86 | 314 | 5.2 | 15.6 | 0.00 | 0.00 | 0.00 | 11 | 995.0 |
| 20260507230005 | 86 | 310 | 6.1 | 15.6 | 0.00 | 0.00 | 0.00 | 11 | 995.0 |
| 20260507225505 | 87 | 304 | 3.5 | 15.6 | 0.00 | 0.00 | 0.00 | 11 | 995.0 |
| 20260507225005 | 87 | 261 | 1.7 | 9.6 | 0.00 | 0.00 | 0.00 | 11 | 995.0 |
| 20260507224004 | 87 | 266 | 1.7 | 10.4 | 0.00 | 0.00 | 0.00 | 12 | 995.1 |
| 20260507223505 | 87 | 309 | 4.3 | 13.9 | 0.00 | 0.00 | 0.00 | 12 | 995.1 |
| 20260507223004 | 86 | 308 | 6.1 | 13.9 | 0.00 | 0.00 | 0.00 | 12 | 995.1 |
| 20260507222004 | 88 | 229 | 0.9 | 13.0 | 0.00 | 0.00 | 0.00 | 12 | 995.1 |
| 20260507221504 | 88 | 277 | 0.9 | 5.2 | 0.00 | 0.00 | 0.00 | 12 | 995.3 |
| 20260507221004 | 88 | 296 | 0.9 | 6.1 | 0.00 | 0.00 | 0.00 | 12 | 995.4 |
| 20260507220504 | 87 | 299 | 2.6 | 9.6 | 0.00 | 0.00 | 0.00 | 11 | 995.4 |
| 20260507220004 | 87 | 301 | 3.5 | 12.2 | 0.00 | 0.00 | 0.00 | 12 | 995.5 |
| 20260507215505 | 87 | 297 | 3.5 | 13.0 | 0.00 | 0.00 | 0.00 | 13 | 995.5 |
| 20260507215005 | 87 | 281 | 3.5 | 13.0 | 0.00 | 0.00 | 0.00 | 13 | 995.5 |
| 20260507214505 | 87 | 253 | 2.6 | 8.7 | 0.00 | 0.00 | 0.00 | 13 | 995.5 |
| 20260507214004 | 87 | 276 | 2.6 | 13.9 | 0.00 | 0.00 | 0.00 | 13 | 995.6 |
| 20260507213504 | 86 | 307 | 3.5 | 13.9 | 0.00 | 0.00 | 0.00 | 13 | 995.6 |
| 20260507213005 | 86 | 305 | 4.3 | 15.6 | 0.00 | 0.00 | 0.00 | 14 | 995.6 |
| 20260507212505 | 86 | 296 | 3.5 | 15.6 | 0.00 | 0.00 | 0.00 | 14 | 995.6 |
| 20260507212005 | 86 | 300 | 4.3 | 13.9 | 0.00 | 0.00 | 0.00 | 15 | 995.6 |
| 20260507211505 | 85 | 307 | 6.1 | 13.9 | 0.00 | 0.00 | 0.00 | 15 | 995.6 |
| 20260507211005 | 86 | 279 | 5.2 | 13.9 | 0.00 | 0.00 | 0.00 | 15 | 995.7 |
| 20260507210505 | 86 | 231 | 3.5 | 13.0 | 0.00 | 0.00 | 0.00 | 15 | 995.7 |
| 20260507210005 | 86 | 259 | 2.6 | 16.5 | 0.00 | 0.00 | 0.00 | 14 | 995.7 |
| 20260507205504 | 86 | 258 | 3.5 | 16.5 | 0.00 | 0.00 | 0.00 | 13 | 995.9 |
| 20260507204505 | 85 | 230 | 4.3 | 12.2 | 0.00 | 0.00 | 0.00 | 14 | 996.1 |
| 20260507204004 | 86 | 248 | 2.6 | 12.2 | 0.00 | 0.00 | 0.00 | 13 | 996.1 |
| 20260507203505 | 86 | 285 | 2.6 | 11.3 | 0.00 | 0.00 | 0.00 | 14 | 996.1 |
| 20260507203004 | 86 | 293 | 2.6 | 11.3 | 0.00 | 0.00 | 0.00 | 14 | 996.1 |
| 20260507202505 | 86 | 285 | 2.6 | 10.4 | 0.00 | 0.00 | 0.00 | 14 | 996.2 |
| 20260507202005 | 86 | 291 | 1.7 | 12.2 | 0.00 | 0.00 | 0.00 | 14 | 996.3 |
| 20260507201504 | 85 | 258 | 1.7 | 12.2 | 0.00 | 0.00 | 0.00 | 15 | 996.2 |
| 20260507201005 | 85 | 222 | 3.5 | 15.6 | 0.00 | 0.00 | 0.00 | 16 | 996.5 |
| 20260507200505 | 85 | 234 | 3.5 | 15.6 | 0.00 | 0.00 | 0.00 | 15 | 996.4 |
| 20260507200005 | 85 | 243 | 2.6 | 12.2 | 0.00 | 0.00 | 0.00 | 15 | 996.5 |
| 20260507194505 | 84 | 248 | 4.3 | 16.5 | 0.00 | 0.00 | 0.00 | 17 | 996.6 |
| 20260507194004 | 84 | 263 | 4.3 | 13.9 | 0.00 | 0.00 | 0.00 | 17 | 996.7 |
| 20260507193504 | 83 | 308 | 4.3 | 13.9 | 0.00 | 0.00 | 0.00 | 18 | 996.7 |
| 20260507193004 | 84 | 288 | 3.5 | 11.3 | 0.00 | 0.00 | 0.00 | 17 | 996.7 |
| 20260507192504 | 83 | 279 | 3.5 | 13.0 | 0.00 | 0.00 | 0.00 | 18 | 996.9 |
| 20260507192004 | 83 | 290 | 5.2 | 13.0 | 0.00 | 0.00 | 0.00 | 18 | 996.9 |
| 20260507191005 | 83 | 258 | 3.5 | 14.8 | 0.00 | 0.00 | 0.00 | 18 | 997.1 |
| 20260507190505 | 83 | 252 | 4.3 | 13.9 | 0.00 | 0.00 | 0.00 | 18 | 997.1 |
| 20260507190005 | 83 | 272 | 3.5 | 13.0 | 0.00 | 0.00 | 0.00 | 19 | 997.0 |
| 20260507185505 | 83 | 278 | 3.5 | 11.3 | 0.00 | 0.00 | 0.00 | 20 | 997.2 |
| 20260507185005 | 83 | 286 | 3.5 | 11.3 | 0.00 | 0.00 | 0.00 | 19 | 997.2 |
| 20260507184505 | 82 | 271 | 2.6 | 11.3 | 0.00 | 0.00 | 0.00 | 20 | 997.2 |
| 20260507184005 | 82 | 258 | 3.5 | 13.0 | 0.00 | 0.00 | 0.00 | 21 | 997.2 |
| 20260507183504 | 81 | 282 | 3.5 | 13.0 | 0.00 | 0.00 | 0.00 | 20 | 997.2 |
| 20260507183004 | 81 | 253 | 4.3 | 13.9 | 0.00 | 0.00 | 0.00 | 22 | 997.2 |
| 20260507182005 | 82 | 243 | 3.5 | 12.2 | 0.00 | 0.00 | 0.00 | 21 | 997.3 |
| 20260507181505 | 82 | 250 | 3.5 | 12.2 | 0.00 | 0.00 | 0.00 | 21 | 997.3 |
| 20260507181005 | 82 | 269 | 1.7 | 9.6 | 0.00 | 0.00 | 0.00 | 21 | 997.3 |
| 20260507180004 | 82 | 241 | 2.6 | 9.6 | 0.00 | 0.00 | 0.00 | 22 | 997.5 |
| 20260507175504 | 82 | 241 | 2.6 | 12.2 | 0.00 | 0.00 | 0.00 | 21 | 997.6 |
| 20260507175004 | 82 | 275 | 2.6 | 12.2 | 0.00 | 0.00 | 0.00 | 22 | 997.6 |
| 20260507174505 | 81 | 271 | 1.7 | 6.1 | 0.00 | 0.00 | 0.00 | 22 | 997.6 |
| 20260507173504 | 81 | 272 | 2.6 | 10.4 | 0.00 | 0.00 | 0.00 | 23 | 997.6 |
| 20260507173005 | 81 | 281 | 1.7 | 10.4 | 0.00 | 0.00 | 0.00 | 23 | 997.6 |
| 20260507172504 | 81 | 252 | 0.9 | 7.8 | 0.00 | 0.00 | 0.00 | 23 | 997.7 |
| 20260507172004 | 80 | 235 | 0.9 | 8.7 | 0.00 | 0.00 | 0.00 | 23 | 997.7 |
| 20260507171504 | 80 | 258 | 0.9 | 8.7 | 0.00 | 0.00 | 0.00 | 23 | 997.7 |
| 20260507171004 | 79 | 250 | 1.7 | 9.6 | 0.00 | 0.00 | 0.00 | 23 | 997.7 |
| 20260507170504 | 78 | 231 | 3.5 | 9.6 | 0.00 | 0.00 | 0.00 | 23 | 997.7 |
| 20260507170005 | 78 | 231 | 3.5 | 10.4 | 0.00 | 0.00 | 0.00 | 25 | 997.7 |
| 20260507165505 | 78 | 231 | 3.5 | 10.4 | 0.00 | 0.00 | 0.00 | 26 | 997.7 |
| 20260507165005 | 78 | 224 | 2.6 | 9.6 | 0.00 | 0.00 | 0.00 | 27 | 997.7 |
| 20260507164504 | 78 | 229 | 2.6 | 9.6 | 0.00 | 0.00 | 0.00 | 26 | 997.7 |
| 20260507164005 | 78 | 232 | 1.7 | 12.2 | 0.00 | 0.00 | 0.00 | 28 | 997.7 |
| 20260507163505 | 77 | 236 | 1.7 | 12.2 | 0.00 | 0.00 | 0.00 | 28 | 997.7 |
| 20260507163004 | 77 | 244 | 2.6 | 12.2 | 0.00 | 0.00 | 0.00 | 29 | 997.7 |
| 20260507162504 | 76 | 243 | 2.6 | 12.2 | 0.00 | 0.00 | 0.00 | 30 | 997.7 |
| 20260507161505 | 76 | 229 | 1.7 | 9.6 | 0.00 | 0.00 | 0.00 | 30 | 997.7 |
| 20260507161005 | 76 | 238 | 0.9 | 9.6 | 0.00 | 0.00 | 0.00 | 29 | 997.7 |
| 20260507160505 | 76 | 277 | 1.7 | 9.6 | 0.00 | 0.00 | 0.00 | 29 | 997.7 |
| 20260507160005 | 76 | 278 | 1.7 | 9.6 | 0.00 | 0.00 | 0.00 | 31 | 997.7 |
| 20260507155505 | 75 | 157 | 0.9 | 4.3 | 0.00 | 0.00 | 0.00 | 32 | 997.7 |
| 20260507155004 | 74 | 154 | 0.9 | 5.2 | 0.00 | 0.00 | 0.00 | 34 | 997.7 |
| 20260507154505 | 74 | 167 | 1.7 | 5.2 | 0.00 | 0.00 | 0.00 | 34 | 997.7 |
| 20260507153504 | 72 | 170 | 1.7 | 5.2 | 0.00 | 0.00 | 0.00 | 35 | 997.7 |
| 20260507153004 | 72 | 168 | 1.7 | 4.3 | 0.00 | 0.00 | 0.00 | 35 | 997.8 |
| 20260507152004 | 71 | 168 | 0.9 | 4.3 | 0.00 | 0.00 | 0.00 | 35 | 997.8 |
| 20260507151505 | 70 | 170 | 0.9 | 3.5 | 0.00 | 0.00 | 0.00 | 36 | 997.8 |
| 20260507151005 | 70 | 170 | 0.9 | 2.6 | 0.00 | 0.00 | 0.00 | 37 | 997.9 |
| 20260507150505 | 69 | 169 | 0.9 | 4.3 | 0.00 | 0.00 | 0.00 | 37 | 997.8 |
| 20260507150005 | 69 | 175 | 1.7 | 4.3 | 0.00 | 0.00 | 0.00 | 38 | 997.8 |
| 20260507145505 | 69 | 184 | 1.7 | 4.3 | 0.00 | 0.00 | 0.00 | 38 | 997.8 |
| 20260507145005 | 69 | 165 | 1.7 | 3.5 | 0.00 | 0.00 | 0.00 | 39 | 997.8 |
| 20260507143504 | 68 | 78 | 0.0 | 2.6 | 0.00 | 0.00 | 0.00 | 39 | 997.9 |
| 20260507142505 | 67 | 0 | 0.0 | 0.0 | 0.00 | 0.00 | 0.00 | 40 | 997.9 |
| 20260507142004 | 67 | 0 | 0.0 | 0.0 | 0.00 | 0.00 | 0.00 | 40 | 997.8 |
| 20260507141504 | 67 | 62 | 0.0 | 1.7 | 0.00 | 0.00 | 0.00 | 41 | 997.8 |
| 20260507141004 | 67 | 63 | 0.0 | 1.7 | 0.00 | 0.00 | 0.00 | 42 | 997.7 |
| 20260507140504 | 66 | 62 | 0.0 | 1.7 | 0.00 | 0.00 | 0.00 | 42 | 997.7 |
| 20260507140004 | 66 | 0 | 0.0 | 0.0 | 0.00 | 0.00 | 0.00 | 43 | 997.7 |
| 20260507135504 | 65 | 0 | 0.0 | 0.0 | 0.00 | 0.00 | 0.00 | 44 | 997.7 |
| 20260507135004 | 65 | 0 | 0.0 | 0.0 | 0.00 | 0.00 | 0.00 | 44 | 997.7 |
| 20260507134504 | 64 | 0 | 0.0 | 0.0 | 0.00 | 0.00 | 0.00 | 45 | 997.7 |
| 20260507134004 | 64 | 0 | 0.0 | 0.0 | 0.00 | 0.00 | 0.00 | 45 | 997.6 |
| 20260507133504 | 64 | 0 | 0.0 | 0.0 | 0.00 | 0.00 | 0.00 | 45 | 997.6 |
| 20260507133004 | 63 | 0 | 0.0 | 0.0 | 0.00 | 0.00 | 0.00 | 45 | 997.5 |
| 20260507132504 | 63 | 0 | 0.0 | 0.0 | 0.00 | 0.00 | 0.00 | 46 | 997.4 |
| 20260507131504 | 62 | 0 | 0.0 | 0.0 | 0.00 | 0.00 | 0.00 | 47 | 997.2 |
| 20260507131004 | 62 | 0 | 0.0 | 0.0 | 0.00 | 0.00 | 0.00 | 48 | 997.2 |
| 20260507130504 | 62 | 0 | 0.0 | 0.0 | 0.00 | 0.00 | 0.00 | 48 | 997.1 |
| 20260507130005 | 62 | 0 | 0.0 | 0.0 | 0.00 | 0.00 | 0.00 | 49 | 997.1 |
| 20260507125504 | 62 | 0 | 0.0 | 0.0 | 0.00 | 0.00 | 0.00 | 48 | 997.2 |
| 20260507125004 | 62 | 0 | 0.0 | 0.0 | 0.00 | 0.00 | 0.00 | 48 | 997.2 |
| 20260507123504 | 62 | 0 | 0.0 | 0.0 | 0.00 | 0.00 | 0.00 | 50 | 997.0 |
| 20260507123004 | 62 | 0 | 0.0 | 0.0 | 0.00 | 0.00 | 0.00 | 50 | 997.0 |
| 20260507122504 | 62 | 0 | 0.0 | 0.0 | 0.00 | 0.00 | 0.00 | 49 | 996.9 |
| 20260507122004 | 62 | 1 | 0.0 | 0.9 | 0.00 | 0.00 | 0.00 | 49 | 996.9 |
| 20260507121504 | 62 | 1 | 0.0 | 0.9 | 0.00 | 0.00 | 0.00 | 49 | 996.9 |
| 20260507121004 | 62 | 0 | 0.0 | 0.0 | 0.00 | 0.00 | 0.00 | 51 | 996.9 |
| 20260507120504 | 62 | 0 | 0.0 | 0.0 | 0.00 | 0.00 | 0.00 | 51 | 996.9 |
| 20260507120005 | 62 | 0 | 0.0 | 0.0 | 0.00 | 0.00 | 0.00 | 51 | 996.9 |
| 20260507115504 | 62 | 0 | 0.0 | 0.0 | 0.00 | 0.00 | 0.00 | 51 | 997.0 |
| 20260507115005 | 62 | 0 | 0.0 | 0.0 | 0.00 | 0.00 | 0.00 | 51 | 997.0 |
| 20260507114504 | 62 | 0 | 0.0 | 0.0 | 0.00 | 0.00 | 0.00 | 51 | 997.0 |
| 20260507114004 | 62 | 0 | 0.0 | 0.0 | 0.00 | 0.00 | 0.00 | 51 | 996.9 |
| 20260507113504 | 62 | 0 | 0.0 | 0.0 | 0.00 | 0.00 | 0.00 | 51 | 997.0 |
| 20260507113005 | 62 | 0 | 0.0 | 0.0 | 0.00 | 0.00 | 0.00 | 51 | 997.1 |
| 20260507112504 | 62 | 0 | 0.0 | 0.0 | 0.00 | 0.00 | 0.00 | 51 | 997.1 |
| 20260507112005 | 62 | 0 | 0.0 | 0.0 | 0.00 | 0.00 | 0.00 | 51 | 997.1 |
| 20260507111506 | 62 | 0 | 0.0 | 0.0 | 0.00 | 0.00 | 0.00 | 50 | 997.2 |
| 20260507111004 | 62 | 40 | 0.0 | 0.9 | 0.00 | 0.00 | 0.00 | 50 | 997.1 |
| 20260507110504 | 63 | 39 | 0.9 | 2.6 | 0.00 | 0.00 | 0.00 | 49 | 997.1 |
| 20260507110005 | 63 | 39 | 0.9 | 2.6 | 0.00 | 0.00 | 0.00 | 48 | 997.1 |
| 20260507105504 | 64 | 0 | 0.0 | 0.0 | 0.00 | 0.00 | 0.00 | 48 | 997.1 |
| 20260507105004 | 64 | 0 | 0.0 | 0.0 | 0.00 | 0.00 | 0.00 | 47 | 997.1 |
| 20260507104504 | 64 | 0 | 0.0 | 0.0 | 0.00 | 0.00 | 0.00 | 47 | 997.1 |
| 20260507104004 | 64 | 0 | 0.0 | 0.0 | 0.00 | 0.00 | 0.00 | 46 | 997.0 |
| 20260507103504 | 65 | 0 | 0.0 | 0.0 | 0.00 | 0.00 | 0.00 | 46 | 997.1 |
| 20260507102504 | 65 | 0 | 0.0 | 0.0 | 0.00 | 0.00 | 0.00 | 48 | 997.1 |
| 20260507101504 | 65 | 0 | 0.0 | 0.0 | 0.00 | 0.00 | 0.00 | 47 | 997.1 |
| 20260507101004 | 65 | 0 | 0.0 | 0.0 | 0.00 | 0.00 | 0.00 | 47 | 997.1 |
| 20260507100504 | 66 | 0 | 0.0 | 0.0 | 0.00 | 0.00 | 0.00 | 47 | 997.2 |
| 20260507095504 | 66 | 0 | 0.0 | 0.0 | 0.00 | 0.00 | 0.00 | 46 | 997.1 |
| 20260507095004 | 66 | 0 | 0.0 | 0.0 | 0.00 | 0.00 | 0.00 | 46 | 997.1 |
| 20260507094004 | 67 | 0 | 0.0 | 0.0 | 0.00 | 0.00 | 0.00 | 45 | 997.2 |
| 20260507093004 | 67 | 0 | 0.0 | 0.0 | 0.00 | 0.00 | 0.00 | 45 | 997.2 |
| 20260507092504 | 67 | 0 | 0.0 | 0.0 | 0.00 | 0.00 | 0.00 | 45 | 997.2 |
| 20260507091504 | 68 | 0 | 0.0 | 0.0 | 0.00 | 0.00 | 0.00 | 45 | 997.2 |
| 20260507090005 | 67 | 0 | 0.0 | 0.0 | 0.00 | 0.00 | 0.00 | 45 | 997.2 |
| 20260507085504 | 67 | 0 | 0.0 | 0.0 | 0.00 | 0.00 | 0.00 | 45 | 997.2 |
| 20260507084504 | 67 | 0 | 0.0 | 0.0 | 0.00 | 0.00 | 0.00 | 45 | 997.2 |
| 20260507084004 | 67 | 0 | 0.0 | 0.0 | 0.00 | 0.00 | 0.00 | 46 | 997.2 |
| 20260507083005 | 68 | 0 | 0.0 | 0.0 | 0.00 | 0.00 | 0.00 | 45 | 997.3 |
| 20260507082004 | 68 | 0 | 0.0 | 0.0 | 0.00 | 0.00 | 0.00 | 44 | 997.4 |
| 20260507081504 | 68 | 0 | 0.0 | 0.0 | 0.00 | 0.00 | 0.00 | 44 | 997.5 |
| 20260507080504 | 68 | 0 | 0.0 | 0.0 | 0.00 | 0.00 | 0.00 | 44 | 997.5 |
| 20260507080004 | 68 | 0 | 0.0 | 0.0 | 0.00 | 0.00 | 0.00 | 44 | 997.5 |
| 20260507075504 | 68 | 0 | 0.0 | 0.0 | 0.00 | 0.00 | 0.00 | 44 | 997.6 |
| 20260507075004 | 68 | 0 | 0.0 | 0.0 | 0.00 | 0.00 | 0.00 | 44 | 997.7 |
| 20260507074504 | 68 | 0 | 0.0 | 0.0 | 0.00 | 0.00 | 0.00 | 44 | 997.7 |
| 20260507074003 | 68 | 0 | 0.0 | 0.0 | 0.00 | 0.00 | 0.00 | 44 | 997.7 |
| 20260507073504 | 68 | 0 | 0.0 | 0.0 | 0.00 | 0.00 | 0.00 | 44 | 997.7 |
| 20260507073004 | 68 | 0 | 0.0 | 0.0 | 0.00 | 0.00 | 0.00 | 44 | 997.7 |
| 20260507072004 | 68 | 0 | 0.0 | 0.0 | 0.00 | 0.00 | 0.00 | 44 | 997.7 |
| 20260507071504 | 68 | 0 | 0.0 | 0.0 | 0.00 | 0.00 | 0.00 | 43 | 997.7 |
| 20260507070504 | 69 | 0 | 0.0 | 0.0 | 0.00 | 0.00 | 0.00 | 43 | 997.7 |
| 20260507070009 | 69 | 0 | 0.0 | 0.0 | 0.00 | 0.00 | 0.00 | 43 | 997.7 |
| 20260507065504 | 69 | 0 | 0.0 | 0.0 | 0.00 | 0.00 | 0.00 | 43 | 997.7 |
| 20260507065004 | 69 | 0 | 0.0 | 0.0 | 0.00 | 0.00 | 0.00 | 42 | 997.7 |
| 20260507064504 | 70 | 0 | 0.0 | 0.0 | 0.00 | 0.00 | 0.00 | 42 | 997.8 |
| 20260507064004 | 70 | 0 | 0.0 | 0.0 | 0.00 | 0.00 | 0.00 | 41 | 997.7 |
| 20260507063504 | 70 | 0 | 0.0 | 0.0 | 0.00 | 0.00 | 0.00 | 41 | 997.7 |
| 20260507063005 | 71 | 0 | 0.0 | 0.0 | 0.00 | 0.00 | 0.00 | 40 | 997.7 |
| 20260507062504 | 71 | 0 | 0.0 | 0.0 | 0.00 | 0.00 | 0.00 | 40 | 997.7 |
| 20260507061503 | 71 | 0 | 0.0 | 0.0 | 0.00 | 0.00 | 0.00 | 40 | 997.7 |
| 20260507061003 | 71 | 0 | 0.0 | 0.0 | 0.00 | 0.00 | 0.00 | 40 | 997.7 |
| 20260507060504 | 71 | 343 | 0.9 | 7.0 | 0.00 | 0.00 | 0.00 | 40 | 997.7 |
| 20260507060005 | 71 | 24 | 1.7 | 8.7 | 0.00 | 0.00 | 0.00 | 40 | 997.7 |
| 20260507055504 | 71 | 43 | 0.9 | 8.7 | 0.00 | 0.00 | 0.00 | 40 | 997.7 |
| 20260507055004 | 71 | 310 | 0.9 | 8.7 | 0.00 | 0.00 | 0.00 | 40 | 997.7 |
| 20260507054504 | 71 | 295 | 1.7 | 8.7 | 0.00 | 0.00 | 0.00 | 40 | 997.6 |
| 20260507054004 | 71 | 295 | 3.5 | 13.0 | 0.00 | 0.00 | 0.00 | 40 | 997.5 |
| 20260507053503 | 71 | 300 | 6.1 | 13.9 | 0.00 | 0.00 | 0.00 | 40 | 997.4 |
| 20260507053004 | 71 | 300 | 7.0 | 15.6 | 0.00 | 0.00 | 0.00 | 40 | 997.4 |
| 20260507052504 | 71 | 303 | 5.2 | 15.6 | 0.00 | 0.00 | 0.00 | 40 | 997.4 |
| 20260507052004 | 71 | 310 | 6.1 | 15.6 | 0.00 | 0.00 | 0.00 | 40 | 997.3 |
| 20260507051504 | 72 | 311 | 8.7 | 18.2 | 0.00 | 0.00 | 0.00 | 40 | 997.4 |
| 20260507051004 | 72 | 310 | 7.0 | 18.2 | 0.00 | 0.00 | 0.00 | 40 | 997.3 |
| 20260507050504 | 72 | 314 | 7.0 | 16.5 | 0.00 | 0.00 | 0.00 | 40 | 997.5 |
| 20260507050005 | 72 | 318 | 8.7 | 16.5 | 0.00 | 0.00 | 0.00 | 40 | 997.3 |
| 20260507045505 | 72 | 311 | 7.8 | 15.6 | 0.00 | 0.00 | 0.00 | 39 | 997.2 |
| 20260507045004 | 72 | 303 | 7.0 | 15.6 | 0.00 | 0.00 | 0.00 | 38 | 997.2 |